Date String (YYYY-MM-DD hh:mm:ss) UTC,Instrument flags,Ambient pressure (hPa),Sample flow (lpm),Bypass flow (lpm),Sample temperature (°C),Ambient temperature (°C),ASC tube jacket temperature (°C),LED temperature (°C),Box temperature (°C),Sample RH (%),Span deviation,Mass concentration (μg/m³),Mass concentration (μg/m³),Mass concentration (μg/m³)
DateTimeUTC,F1_M11,P_M11,Q1_M11,Q2_M11,T1_M11,T2_M11,T3_M11,T4_M11,T5_M11,U1_M11,ZSPAN_M11,X2_M11,X0_M11,X1_M11
2022-03-17 16:00:00,,0829.0,5.01,0.00,22.3,21.8,00.0,31.2,24.1,18.2,0000.0,0000.56,0001.01,0000.31
2022-03-17 16:01:00,,0829.3,5.00,0.00,22.3,21.8,00.0,31.2,24.1,18.1,0000.0,0000.57,0001.02,0000.32
2022-03-17 16:02:00,,0829.1,5.00,0.00,22.3,21.7,00.0,31.2,24.1,18.1,0000.0,0000.57,0001.02,0000.33
2022-03-17 16:03:00,,0829.1,5.01,0.00,22.3,21.7,00.0,31.2,24.0,18.1,0000.0,0000.59,0001.06,0000.33
2022-03-17 16:04:00,,0828.9,5.00,0.00,22.3,21.7,00.0,31.2,24.0,17.9,0000.0,0000.58,0001.05,0000.34
2022-03-17 16:05:00,,0828.8,5.00,0.00,22.2,21.6,00.0,31.2,24.0,17.7,0000.0,0000.55,0001.02,0000.33
2022-03-17 16:06:00,,0828.9,4.99,0.00,22.2,21.6,00.0,31.2,23.9,17.7,0000.0,0000.57,0001.07,0000.34
2022-03-17 16:07:00,,0829.0,5.00,0.00,22.2,21.5,00.0,31.2,23.9,18.0,0000.0,0000.58,0001.08,0000.34
2022-03-17 16:08:00,,0829.0,5.00,0.00,22.2,21.5,00.0,31.2,23.9,18.1,0000.0,0000.57,0001.63,0000.34
2022-03-17 16:09:00,,0828.9,5.00,0.00,22.1,21.5,00.0,31.2,23.8,18.0,0000.0,0000.57,0002.07,0000.33
2022-03-17 16:10:00,,0829.0,4.99,0.00,22.1,21.4,00.0,31.2,23.8,17.8,0000.0,0000.60,0002.18,0000.35
2022-03-17 16:11:00,,0829.0,5.00,0.00,22.1,21.4,00.0,31.2,23.8,17.8,0000.0,0000.59,0002.42,0000.35
2022-03-17 16:12:00,,0829.0,4.99,0.00,22.1,21.4,00.0,31.2,23.7,17.9,0000.0,0000.58,0002.46,0000.35
2022-03-17 16:13:00,,0829.1,5.00,0.00,22.0,21.4,00.0,31.2,23.7,17.9,0000.0,0000.59,0002.46,0000.36
2022-03-17 16:14:00,,0829.0,5.00,0.00,22.0,21.3,00.0,31.1,23.8,17.9,0000.0,0000.59,0002.46,0000.37
2022-03-17 16:15:00,,0829.0,5.00,0.00,22.0,21.3,00.0,31.1,23.7,17.9,0000.0,0000.64,0002.55,0000.37
2022-03-17 16:16:00,,0829.0,5.01,0.00,22.0,21.3,00.0,31.1,23.7,17.9,0000.0,0000.67,0002.60,0000.37
2022-03-17 16:17:00,,0829.0,5.00,0.00,22.0,21.3,00.0,31.1,23.7,17.9,0000.0,0000.67,0002.57,0000.37
2022-03-17 16:18:00,,0829.0,5.00,0.00,22.0,21.3,00.0,31.1,23.7,18.0,0000.0,0000.69,0002.65,0000.38
2022-03-17 16:19:00,,0829.0,5.00,0.00,22.0,21.3,00.0,31.1,23.7,17.8,0000.0,0000.71,0002.07,0000.39
2022-03-17 16:20:00,,0829.0,5.00,0.00,21.9,21.3,00.0,31.1,23.6,17.8,0000.0,0000.71,0001.75,0000.38
2022-03-17 16:21:00,,0829.1,5.00,0.00,22.0,21.6,00.0,31.1,23.8,17.8,0000.0,0000.68,0001.63,0000.38
2022-03-17 16:22:00,,0829.1,5.02,0.00,22.1,22.5,00.0,31.1,24.1,17.6,0000.0,0000.70,0001.39,0000.38
2022-03-17 16:23:00,,0829.0,5.01,0.00,22.3,23.2,00.0,31.2,24.3,17.5,0000.0,0000.71,0001.35,0000.39
2022-03-17 16:24:00,,0829.1,5.00,0.00,22.4,23.1,00.0,31.2,24.4,17.4,0000.0,0000.73,0001.39,0000.39
2022-03-17 16:25:00,,0829.1,4.99,0.00,22.4,22.9,00.0,31.2,24.3,17.3,0000.0,0000.71,0001.35,0000.38
2022-03-17 16:26:00,,0829.1,4.99,0.00,22.4,22.6,00.0,31.2,24.2,17.2,0000.0,0000.66,0001.23,0000.38
2022-03-17 16:27:00,,0829.1,5.01,0.00,22.4,22.4,00.0,31.2,24.2,17.2,0000.0,0000.60,0001.10,0000.38
2022-03-17 16:28:00,,0829.1,5.01,0.00,22.3,22.2,00.0,31.2,24.1,17.3,0000.0,0000.58,0001.05,0000.38
2022-03-17 16:29:00,,0829.1,5.00,0.00,22.3,22.0,00.0,31.3,24.1,17.4,0000.0,0000.54,0000.99,0000.37
2022-03-17 16:30:00,,0829.1,5.00,0.00,22.3,21.9,00.0,31.3,24.1,17.4,0000.0,0000.53,0001.03,0000.36
2022-03-17 16:31:00,,0829.1,4.99,0.00,22.3,21.8,00.0,31.3,24.0,17.3,0000.0,0000.51,0000.94,0000.36
2022-03-17 16:32:00,,0829.1,5.00,0.00,22.3,21.8,00.0,31.2,24.0,17.3,0000.0,0000.54,0001.00,0000.36
2022-03-17 16:33:00,,0829.1,5.00,0.00,22.2,21.7,00.0,31.2,23.9,17.3,0000.0,0000.54,0001.06,0000.35
2022-03-17 16:34:00,,0829.1,5.00,0.00,22.2,21.7,00.0,31.2,23.9,17.1,0000.0,0000.53,0001.07,0000.35
2022-03-17 16:35:00,,0829.1,5.00,0.00,22.2,21.6,00.0,31.2,23.9,17.3,0000.0,0000.51,0001.03,0000.34
2022-03-17 16:36:00,,0829.1,5.00,0.00,22.2,21.5,00.0,31.2,23.9,17.5,0000.0,0000.51,0001.03,0000.35
2022-03-17 16:37:00,,0829.2,5.00,0.00,22.1,21.5,00.0,31.2,23.9,17.5,0000.0,0000.55,0001.09,0000.36
2022-03-17 16:38:00,,0829.1,5.00,0.00,22.1,21.5,00.0,31.2,23.8,17.7,0000.0,0000.58,0001.21,0000.36
2022-03-17 16:39:00,,0829.2,5.00,0.00,22.1,21.4,00.0,31.2,23.8,17.7,0000.0,0000.62,0001.33,0000.37
2022-03-17 16:40:00,,0829.1,5.00,0.00,22.1,21.4,00.0,31.2,23.8,18.0,0000.0,0000.64,0001.38,0000.38
2022-03-17 16:41:00,,0829.1,4.99,0.00,22.1,21.4,00.0,31.2,23.9,17.8,0000.0,0000.64,0001.30,0000.39
2022-03-17 16:42:00,,0829.1,5.00,0.00,22.1,21.4,00.0,31.2,23.9,17.3,0000.0,0000.65,0001.28,0000.39
2022-03-17 16:43:00,,0829.1,5.00,0.00,22.1,21.4,00.0,31.2,23.8,16.9,0000.0,0000.63,0001.22,0000.40
2022-03-17 16:44:00,,0829.1,5.00,0.00,22.1,21.4,00.0,31.1,23.7,16.9,0000.0,0000.62,0001.15,0000.40
2022-03-17 16:45:00,,0829.2,5.01,0.00,22.0,21.3,00.0,31.1,23.7,17.0,0000.0,0000.64,0001.17,0000.40
2022-03-17 16:46:00,,0829.2,5.01,0.00,22.0,21.3,00.0,31.1,23.7,16.8,0000.0,0000.68,0001.31,0000.40
2022-03-17 16:47:00,,0829.2,5.00,0.00,22.0,21.3,00.0,31.1,23.6,16.9,0000.0,0000.69,0001.39,0000.40
2022-03-17 16:48:00,,0829.2,5.00,0.00,21.9,21.3,00.0,31.1,23.6,17.0,0000.0,0000.68,0001.43,0000.40
2022-03-17 16:49:00,,0829.2,4.99,0.00,21.9,21.3,00.0,31.1,23.6,17.3,0000.0,0000.72,0001.52,0000.41
2022-03-17 16:50:00,,0829.2,5.00,0.00,21.9,21.3,00.0,31.1,23.6,17.2,0000.0,0000.76,0001.65,0000.42
2022-03-17 16:51:00,,0829.2,5.00,0.00,21.9,21.3,00.0,31.1,23.6,17.1,0000.0,0000.77,0001.68,0000.42
2022-03-17 16:52:00,,0829.2,5.00,0.00,21.9,21.2,00.0,31.0,23.6,17.2,0000.0,0000.78,0001.71,0000.43
2022-03-17 16:53:00,,0829.2,4.99,0.00,21.9,21.2,00.0,31.0,23.6,17.1,0000.0,0000.80,0001.74,0000.43
2022-03-17 16:54:00,,0829.2,5.00,0.00,21.9,21.3,00.0,31.0,23.6,17.2,0000.0,0000.83,0001.82,0000.44
2022-03-17 16:55:00,,0829.2,5.01,0.00,22.0,21.9,00.0,31.0,23.9,17.0,0000.0,0000.87,0001.93,0000.45
2022-03-17 16:56:00,,0829.2,5.00,0.00,22.2,22.8,00.0,31.1,24.2,16.9,0000.0,0000.89,0001.97,0000.45
2022-03-17 16:57:00,,0829.2,4.99,0.00,22.3,23.2,00.0,31.1,24.4,16.4,0000.0,0000.92,0002.03,0000.46
2022-03-17 16:58:00,,0829.3,4.99,0.00,22.4,23.0,00.0,31.2,24.3,16.3,0000.0,0000.97,0002.15,0000.47
2022-03-17 16:59:00,,0829.2,4.99,0.00,22.4,22.8,00.0,31.2,24.3,16.4,0000.0,0001.01,0002.25,0000.46
